2023-126C (57695 NORAD) Tracking and Keplerian Element Data

This shows tracking and keplerian element data for the satellite.

Feedback or suggestion? Click here.




ElementValue
Catalog57695
Name2023-126C
Epoch Orbit45
Epoch Day238.92444111
Epoch Year2023
RAAN275.8356
Inclination53.0109
Eccentricity0.032921
Argument of Perigee263.411
Mean Anonmoly148.0289
Mean Motion15.54627263
Decay Rate0.01186521
L11 57695U 23126C 23238.92444111 .01186521 99877-5 10488-2 0 9992
L22 57695 53.0109 275.8356 0329210 263.4110 148.0289 15.54627263 454



Live tracking and technical data element details for 2023-126C (NORAD 57695). 2023-126C can be tracked NOW for your location showing map with azimuth and elevation plus other details from your city location.







IsCatalogInMostPopularTable: catalog: 57695, numindb: 33
Update: records affected: 1



GetName: 57695 2023-126C

Hit Count: updated at: Mon, 04 Dec 2023 02:49:44 GMT